New Ulm, MN

9:20 PM CST on December 14, 2019 (GMT -0600)
New Ulm Municipal

Weather History for KULM - October, 2019

Change the Weather History Date:

Tuesday, October 8, 2019

  Actual Average Record
Temperature  
Mean Temperature 58 °F -  
Max Temperature 71 °F 63 °F 87 °F (2010)
Min Temperature 46 °F 40 °F 14 °F (2000)
Degree Days  
Heating Degree Days 6    
Growing Degree Days 8 (Base 50)    
Moisture  
Dew Point 40 °F    
Average Humidity 54    
Maximum Humidity 76    
Minimum Humidity 31    
Precipitation  
Precipitation 0.00 in - - ()
Sea Level Pressure  
Sea Level Pressure 29.93 in    
Wind  
Wind Speed 13 mph ()    
Max Wind Speed 26 mph    
Max Gust Speed 34 mph    
Visibility 10.0 miles    
Events      
Averages and records for this station are not official NWS values.
T = Trace of Precipitation, MM = Missing Value Source: Averaged Metar Reports

Daily Weather History Graph

Daily Weather History Graph

Search for Another Location

Airport or City:

Astronomy

Oct. 08, 2019 Rise Set
Actual Time 7:24 AM CDT 6:46 PM CDT
Civil Twilight 6:54 AM CDT 7:15 PM CDT
Nautical Twilight 6:21 AM CDT 7:48 PM CDT
Astronomical Twilight 5:47 AM CDT 8:22 PM CDT
Moon 4:59 PM CDT (10/8) 1:59 AM CDT (10/8)
Length of Visible Light 12h 20m
Length of Day
11h 22m
Waxing Gibbous, 78% of the Moon is Illuminated
Oct 8
Waxing Gibbous
Oct 13
Full
Oct 21
Last Quarter
Oct 27
New
Nov 4
First Quarter

Hourly Weather History & Observations

Time (CDT) Temp. Windchill Dew Point Humidity Pressure Visibility Wind Dir Wind Speed Gust Speed Precip Events Conditions
12:15 AM 48.2 °F - 39.2 °F 71% 30.02 in 10.0 mi SSE 8.1 mph - N/A   Clear
12:16 AM 48.2 °F - 39.2 °F 71% 30.02 in 10.0 mi SSE 8.1 mph - N/A   Clear
12:35 AM 48.2 °F - 39.2 °F 71% 30.02 in 10.0 mi SSE 9.2 mph - N/A   Clear
12:55 AM 48.2 °F - 39.2 °F 71% 30.01 in 10.0 mi SSE 9.2 mph - N/A   Clear
12:56 AM 48.2 °F - 39.2 °F 71% 30.01 in 10.0 mi SSE 8.1 mph - N/A   Clear
1:15 AM 48.2 °F - 39.2 °F 71% 30.01 in 10.0 mi SSE 10.4 mph - N/A   Clear
1:35 AM 48.2 °F - 39.2 °F 71% 30.01 in 10.0 mi South 10.4 mph - N/A   Clear
1:36 AM 48.2 °F - 39.2 °F 71% 30.01 in 10.0 mi South 11.5 mph - N/A   Clear
1:55 AM 48.2 °F - 39.2 °F 71% 30.01 in 10.0 mi South 10.4 mph - N/A   Clear
2:15 AM 48.2 °F - 39.2 °F 71% 30.01 in 10.0 mi South 11.5 mph - N/A   Clear
2:16 AM 48.2 °F - 39.2 °F 71% 30.01 in 10.0 mi South 11.5 mph - N/A   Clear
2:35 AM 48.2 °F - 39.2 °F 71% 30.00 in 10.0 mi South 9.2 mph - N/A   Clear
2:55 AM 48.2 °F - 39.2 °F 71% 30.00 in 10.0 mi South 10.4 mph - N/A   Clear
2:56 AM 48.2 °F - 39.2 °F 71% 30.00 in 10.0 mi South 10.4 mph - N/A   Clear
3:15 AM 48.2 °F - 39.2 °F 71% 29.99 in 10.0 mi South 10.4 mph - N/A   Clear
3:16 AM 48.2 °F - 39.2 °F 71% 29.99 in 10.0 mi South 10.4 mph - N/A   Clear
3:36 AM 48.2 °F - 39.2 °F 71% 29.99 in 10.0 mi South 10.4 mph - N/A   Clear
3:55 AM 48.2 °F - 39.2 °F 71% 29.99 in 10.0 mi South 12.7 mph 16.1 mph N/A   Clear
3:56 AM 48.2 °F - 39.2 °F 71% 29.99 in 10.0 mi South 10.4 mph 16.1 mph N/A   Clear
4:15 AM 48.2 °F - 39.2 °F 71% 29.99 in 10.0 mi South 10.4 mph - N/A   Clear
4:16 AM 48.2 °F - 39.2 °F 71% 29.99 in 10.0 mi South 10.4 mph - N/A   Clear
4:35 AM 48.2 °F - 39.2 °F 71% 29.99 in 10.0 mi South 9.2 mph - N/A   Clear
4:55 AM 48.2 °F - 39.2 °F 71% 29.99 in 10.0 mi South 10.4 mph - N/A   Clear
5:15 AM 48.2 °F - 39.2 °F 71% 29.99 in 10.0 mi South 9.2 mph - N/A   Clear
5:35 AM 48.2 °F - 39.2 °F 71% 29.99 in 10.0 mi South 10.4 mph - N/A   Clear
5:55 AM 48.2 °F - 39.2 °F 71% 29.99 in 10.0 mi South 10.4 mph - N/A   Clear
6:15 AM 48.2 °F - 39.2 °F 71% 29.99 in 10.0 mi South 10.4 mph - N/A   Clear
6:16 AM 48.2 °F - 39.2 °F 71% 29.98 in 10.0 mi South 9.2 mph - N/A   Clear
6:35 AM 48.2 °F - 39.2 °F 71% 29.98 in 10.0 mi South 10.4 mph - N/A   Clear
6:36 AM 48.2 °F - 39.2 °F 71% 29.98 in 10.0 mi South 10.4 mph - N/A   Clear
6:55 AM 46.4 °F 41.9 °F 39.2 °F 76% 29.98 in 10.0 mi South 9.2 mph - N/A   Clear
7:15 AM 46.4 °F 41.9 °F 39.2 °F 76% 29.98 in 10.0 mi South 9.2 mph - N/A   Clear
7:35 AM 48.2 °F - 39.2 °F 71% 29.98 in 10.0 mi South 11.5 mph - N/A   Clear
7:36 AM 48.2 °F - 39.2 °F 71% 29.98 in 10.0 mi South 11.5 mph - N/A   Clear
7:55 AM 48.2 °F - 39.2 °F 71% 29.98 in 10.0 mi South 11.5 mph - N/A   Clear
8:15 AM 50.0 °F - 39.2 °F 66% 29.97 in 10.0 mi South 11.5 mph - N/A   Clear
8:35 AM 51.8 °F - 39.2 °F 62% 29.97 in 10.0 mi South 12.7 mph - N/A   Clear
8:36 AM 51.8 °F - 39.2 °F 62% 29.97 in 10.0 mi South 12.7 mph - N/A   Clear
8:55 AM 53.6 °F - 41.0 °F 62% 29.97 in 10.0 mi South 13.8 mph - N/A   Clear
8:56 AM 53.6 °F - 41.0 °F 62% 29.97 in 10.0 mi South 12.7 mph - N/A   Clear
9:15 AM 55.4 °F - 41.0 °F 58% 29.96 in 10.0 mi South 15.0 mph 18.4 mph N/A   Clear
9:35 AM 57.2 °F - 41.0 °F 55% 29.96 in 10.0 mi South 18.4 mph 24.2 mph N/A   Clear
9:36 AM 57.2 °F - 41.0 °F 55% 29.96 in 10.0 mi South 16.1 mph 24.2 mph N/A   Clear
9:55 AM 59.0 °F - 41.0 °F 51% 29.96 in 10.0 mi South 16.1 mph 26.5 mph N/A   Clear
9:56 AM 59.0 °F - 41.0 °F 51% 29.96 in 10.0 mi South 17.3 mph - N/A   Clear
10:15 AM 60.8 °F - 41.0 °F 48% 29.96 in 10.0 mi South 17.3 mph 26.5 mph N/A   Clear
10:35 AM 62.6 °F - 39.2 °F 42% 29.96 in 10.0 mi South 23.0 mph 27.6 mph N/A   Clear
10:36 AM 62.6 °F - 39.2 °F 42% 29.95 in 10.0 mi South 23.0 mph 28.8 mph N/A   Clear
10:55 AM 62.6 °F - 39.2 °F 42% 29.95 in 10.0 mi South 23.0 mph 33.4 mph N/A   Clear
11:15 AM 64.4 °F - 41.0 °F 42% 29.95 in 10.0 mi South 19.6 mph 32.2 mph N/A   Clear
11:16 AM 64.4 °F - 41.0 °F 42% 29.95 in 10.0 mi South 23.0 mph 32.2 mph N/A   Clear
11:35 AM 64.4 °F - 41.0 °F 42% 29.94 in 10.0 mi South 24.2 mph 32.2 mph N/A   Clear
11:55 AM 66.2 °F - 39.2 °F 37% 29.94 in 10.0 mi SSW 20.7 mph 34.5 mph N/A   Clear
11:56 AM 66.2 °F - 39.2 °F 37% 29.94 in 10.0 mi SSW 23.0 mph 34.5 mph N/A   Clear
12:15 PM 66.2 °F - 41.0 °F 40% 29.93 in 10.0 mi South 20.7 mph 28.8 mph N/A   Clear
12:16 PM 66.2 °F - 39.2 °F 37% 29.93 in 10.0 mi SSW 21.9 mph 28.8 mph N/A   Clear
12:35 PM 68.0 °F - 39.2 °F 35% 29.92 in 10.0 mi South 20.7 mph 28.8 mph N/A   Clear
12:55 PM 68.0 °F - 41.0 °F 37% 29.92 in 10.0 mi South 21.9 mph 31.1 mph N/A   Clear
12:56 PM 68.0 °F - 41.0 °F 37% 29.92 in 10.0 mi South 20.7 mph 31.1 mph N/A   Clear
1:15 PM 69.8 °F - 39.2 °F 33% 29.91 in 10.0 mi South 24.2 mph 32.2 mph N/A   Clear
1:35 PM 69.8 °F - 39.2 °F 33% 29.90 in 10.0 mi South 20.7 mph 33.4 mph N/A   Clear
1:36 PM 69.8 °F - 39.2 °F 33% 29.90 in 10.0 mi South 19.6 mph 33.4 mph N/A   Clear
1:55 PM 69.8 °F - 41.0 °F 35% 29.88 in 10.0 mi South 21.9 mph 32.2 mph N/A   Unknown
2:15 PM 69.8 °F - 41.0 °F 35% 29.88 in 10.0 mi South 25.3 mph 32.2 mph N/A   Unknown
2:16 PM 69.8 °F - 41.0 °F 35% 29.88 in 10.0 mi South 23.0 mph 31.1 mph N/A   Unknown
2:35 PM 69.8 °F - 39.2 °F 33% 29.87 in 10.0 mi South 25.3 mph 33.4 mph N/A   Unknown
2:55 PM 69.8 °F - 41.0 °F 35% 29.87 in 10.0 mi South 26.5 mph 33.4 mph N/A   Clear
2:56 PM 69.8 °F - 41.0 °F 35% 29.86 in 10.0 mi South 26.5 mph 33.4 mph N/A   Clear
3:15 PM 71.6 °F - 39.2 °F 31% 29.86 in 10.0 mi South 20.7 mph 31.1 mph N/A   Clear
3:35 PM 71.6 °F - 41.0 °F 33% 29.86 in 10.0 mi South 25.3 mph 32.2 mph N/A   Clear
3:55 PM 69.8 °F - 41.0 °F 35% 29.86 in 10.0 mi SSE 21.9 mph 31.1 mph N/A   Clear
4:15 PM 69.8 °F - 41.0 °F 35% 29.85 in 10.0 mi South 23.0 mph 32.2 mph N/A   Clear
4:16 PM 69.8 °F - 41.0 °F 35% 29.85 in 10.0 mi South 20.7 mph 32.2 mph N/A   Clear
4:35 PM 69.8 °F - 41.0 °F 35% 29.85 in 10.0 mi South 21.9 mph 31.1 mph N/A   Clear
4:36 PM 69.8 °F - 39.2 °F 33% 29.85 in 10.0 mi South 24.2 mph 31.1 mph N/A   Clear
4:55 PM 69.8 °F - 39.2 °F 33% 29.85 in 10.0 mi South 25.3 mph 31.1 mph N/A   Clear
5:15 PM 69.8 °F - 39.2 °F 33% 29.85 in 10.0 mi South 25.3 mph 28.8 mph N/A   Clear
5:35 PM 69.8 °F - 41.0 °F 35% 29.84 in 10.0 mi South 17.3 mph 28.8 mph N/A   Clear
5:55 PM 68.0 °F - 39.2 °F 35% 29.84 in 10.0 mi South 19.6 mph 25.3 mph N/A   Clear
5:56 PM 68.0 °F - 39.2 °F 35% 29.84 in 10.0 mi South 19.6 mph 25.3 mph N/A   Clear
6:15 PM 66.2 °F - 41.0 °F 40% 29.84 in 10.0 mi SSE 18.4 mph 24.2 mph N/A   Clear
6:16 PM 66.2 °F - 41.0 °F 40% 29.84 in 10.0 mi SSE 15.0 mph 24.2 mph N/A   Clear
6:35 PM 64.4 °F - 41.0 °F 42% 29.84 in 10.0 mi SSE 13.8 mph 19.6 mph N/A   Clear
6:36 PM 64.4 °F - 41.0 °F 42% 29.84 in 10.0 mi SSE 13.8 mph 19.6 mph N/A   Clear
6:55 PM 64.4 °F - 42.8 °F 45% 29.85 in 10.0 mi SSE 12.7 mph - N/A   Clear
7:15 PM 62.6 °F - 41.0 °F 45% 29.85 in 10.0 mi SSE 15.0 mph - N/A   Clear
7:16 PM 62.6 °F - 41.0 °F 45% 29.85 in 10.0 mi SSE 15.0 mph - N/A   Clear
7:35 PM 62.6 °F - 41.0 °F 45% 29.85 in 10.0 mi SSE 13.8 mph 18.4 mph N/A   Clear
7:36 PM 62.6 °F - 41.0 °F 45% 29.85 in 10.0 mi SSE 15.0 mph - N/A   Clear
7:55 PM 60.8 °F - 41.0 °F 48% 29.86 in 10.0 mi SSE 12.7 mph - N/A   Clear
8:15 PM 60.8 °F - 41.0 °F 48% 29.86 in 10.0 mi SSE 15.0 mph - N/A   Clear
8:35 PM 60.8 °F - 41.0 °F 48% 29.86 in 10.0 mi South 15.0 mph 19.6 mph N/A   Clear
8:55 PM 60.8 °F - 41.0 °F 48% 29.87 in 10.0 mi South 15.0 mph 19.6 mph N/A   Clear
8:56 PM 60.8 °F - 41.0 °F 48% 29.87 in 10.0 mi South 13.8 mph 19.6 mph N/A   Clear
9:15 PM 60.8 °F - 41.0 °F 48% 29.87 in 10.0 mi South 16.1 mph 24.2 mph N/A   Clear
9:35 PM 59.0 °F - 42.8 °F 55% 29.88 in 10.0 mi South 13.8 mph - N/A   Clear
9:55 PM 57.2 °F - 42.8 °F 59% 29.88 in 10.0 mi South 12.7 mph - N/A   Clear
10:15 PM 57.2 °F - 42.8 °F 59% 29.88 in 10.0 mi South 13.8 mph - N/A   Clear
10:35 PM 57.2 °F - 42.8 °F 59% 29.88 in 10.0 mi SSE 15.0 mph - N/A   Clear
10:55 PM 57.2 °F - 42.8 °F 59% 29.88 in 10.0 mi SSE 15.0 mph 19.6 mph N/A   Clear
11:15 PM 55.4 °F - 42.8 °F 63% 29.88 in 10.0 mi South 13.8 mph - N/A   Clear
11:16 PM 55.4 °F - 42.8 °F 63% 29.89 in 10.0 mi SSE 12.7 mph - N/A   Clear
11:35 PM 55.4 °F - 44.6 °F 67% 29.89 in 10.0 mi South 10.4 mph - N/A   Clear
11:36 PM 55.4 °F - 44.6 °F 67% 29.89 in 10.0 mi South 10.4 mph - N/A   Clear
11:55 PM 55.4 °F - 44.6 °F 67% 29.89 in 10.0 mi SSE 10.4 mph - N/A   Clear